Regional Weather Roundup
Issued by NWS

Home | Current Version | Previous Version | Text Only | Print | Product List | Glossary Off
Versions: 1 2 3 4 5 6 7 8 9 10 11 12 13 14 15 16 17 18 19 20 21 22 23 24 25 26 27 28 29 30 31 32 33 34 35 36 37 38 39 40 41 42 43 44 45 46 47 48 49 50

000
ASUS45 KTFX 292104
RWRMT
MONTANA REGIONAL WEATHER ROUNDUP
NATIONAL WEATHER SERVICE GREAT FALLS MT
300 PM MDT SAT AUG 29 2015

NOTE: "FAIR" INDICATES FEW OR NO CLOUDS BELOW 12000 FEET WITH NO
SIGNIFICANT WEATHER AND/OR OBSTRUCTIONS TO VISIBILITY.

MTZ001>007-043-292200-
WEST OF THE DIVIDE

CITY           SKY/WX    TMP DP  RH WIND       PRES   REMARKS
KALISPELL        N/A     78  48  34 SW7       29.72S SMOKE
MISSOULA         N/A     77  46  33 SW3       29.77F HAZE
BUTTE            N/A     85  38  18 S16G32    29.92F
MULLAN PASS    LGT RAIN  57  43  59 W13G29    29.98R
DEER LODGE       N/A     88  43  20 S8G18     29.86F
EUREKA           N/A     72  46  40 E8        29.74R
HAMILTON         N/A     77  46  33 E1        29.79F
LIBBY            N/A     81  43  26 E8G21     29.76S
$$

MTZ008-052>055-292200-
SOUTHWEST MONTANA

CITY           SKY/WX    TMP DP  RH WIND       PRES   REMARKS
BOZEMAN          N/A     89  41  18 S25G32    29.90F
DILLON           N/A     91  38  15 S25G39    29.89F
W YELLOWSTONE    N/A     72  43  35 SE8       30.18F
$$

MTZ009-010-012-014-046-048-049-054-292200-
EAST SLOPES AND CENTRAL MONTANA

CITY           SKY/WX    TMP DP  RH WIND       PRES   REMARKS
CUT BANK       PTSUNNY   84  45  25 S20       29.77F HAZE
GREAT FALLS      N/A     89  40  17 SE3       29.79F HAZE
MALMSTROM AFB    N/A     87  40  19 E2        29.77F
HELENA         CLOUDY    83  45  26 CALM      29.80F SMOKE
$$

MTZ011-013-016-021-045-047-050-051-292200-
NORTH CENTRAL MONTANA

CITY           SKY/WX    TMP DP  RH WIND       PRES   REMARKS
HAVRE            N/A     93  44  18 S15G24    29.73F HAZE
LEWISTOWN        N/A     88  42  20 S13       29.89F
N BAR RANCH      N/A     86  39  19 S13G20    29.96S
CHINOOK          N/A     91  45  19 SE14G20   29.74F
FORT BENTON      N/A     90  41  18 W15       29.77S
$$

MTZ017>020-022>027-061-062-292200-
NORTHEAST MONTANA

CITY           SKY/WX    TMP DP  RH WIND       PRES   REMARKS
GLASGOW        HAZE      90  42  18 SE9       29.81F VSB 3/4
JORDAN           N/A     95  37  13 S10       29.82F HX  90
SIDNEY           N/A     95  48  20 CALM      29.82F HX  91
WOLF POINT     HAZE      89  46  22 E6        29.82F VSB 1
PLENTYWOOD       N/A     86  46  25 S9        29.84S
POPLAR           N/A     88  45  22 E7        29.82F VSB 3/4
$$

MTZ028>42-056>058-292200-
SOUTHCENTRAL AND SOUTHEAST MONTANA

CITY           SKY/WX    TMP DP  RH WIND       PRES   REMARKS
BAKER            N/A     98  41  14 SW9       29.90F HX  93
BILLINGS       PTSUNNY   91  40  16 N3        29.90F
LIVINGSTON       N/A     87  40  19 SW25G36   29.93F
MILES CITY       N/A    100  45  15 S10       29.83F HX  96
FORSYTH          N/A     97  43  15 NW5       29.84F HX  92
$$

REGIONAL REPORTS...DAKOTAS

CITY           SKY/WX    TMP DP  RH WIND       PRES   REMARKS
WILLISTON        N/A     89  50  26 S3        29.83F HAZE
MINOT          PTSUNNY   94  49  21 S12       29.82F HAZE    HX  90
DICKINSON        N/A     99  41  13 SW13G24   29.86F HX  94
BISMARCK       PTSUNNY   92  59  33 SE13      29.87F HAZE    HX  91
GRAND FORKS      N/A     80  68  66 S9G18     29.86F
FARGO            N/A     84  68  58 S14       29.89F
BUFFALO SD       N/A     95  49  20 SE12      29.87F HX  92
RAPID CITY       N/A     93  49  22 S17       29.97F HX  90
$$

REGIONAL REPORTS...WYOMING/IDAHO/WASHINGTON

CITY           SKY/WX    TMP DP  RH WIND       PRES   REMARKS
GILLETTE         N/A     95  36  12 SW12G22   29.98F HX  90
SHERIDAN         N/A     98  31   9 VRB5      29.92F HX  92
BUFFALO WY       N/A     96  32  10 N9        30.00F HX  90
CODY             N/A     88  37  16 SE9       30.02S
YELLOWSTONE LA   N/A     63  43  48 CALM      30.32F
IDAHO FALLS      N/A     92  43  18 SW20G28   29.98F
SALMON           N/A     90  48  24 S18G28    29.75F
BOISE            N/A     92  38  15 VRB6      29.83F
SPOKANE        LGT RAIN  59  53  80 SW18      29.84R DUST
$$

REGIONAL REPORTS...ALBERTA

CITY           SKY/WX    TMP DP  RH WIND       PRES   REMARKS
$$

REGIONAL REPORTS...SASKATCHEWAN

CITY           SKY/WX    TMP DP  RH WIND       PRES   REMARKS
$$



USA.gov is the U.S. government's official web portal to all federal, state and local government web resources and services.